H-2A DEB (43675 NORAD) Tracking and Keplerian Element Data

This shows tracking and keplerian element data for the satellite.

Feedback or suggestion? Click here.




ElementValue
Catalog43675
NameH-2A DEB
Epoch Orbit213
Epoch Day316.53896991
Epoch Year2018
RAAN66.95
Inclination97.8502
Eccentricity0.0016429
Argument of Perigee250.4704
Mean Anonmoly109.4744
Mean Motion14.88206561
Decay Rate4.78E-06
L11 43675U 18084E 18316.53896991 .00000478 00000-0 57777-4 0 9991
L22 43675 97.8502 66.9500 0016429 250.4704 109.4744 14.88206561 2134

Live tracking and technical data element details for H-2A DEB (NORAD 43675). H-2A DEB can be tracked NOW for your location showing map with azimuth and elevation plus other details from your city location.

Track the satellite on the map from your city or location and see movement details for azimuth, elevation, latitude, longitude, range, height, and movement on the map or in text.







IsCatalogInMostPopularTable: catalog: 43675, numindb: 3
Update: records affected: 1



GetName: 43675 H-2A DEB

Hit Count: updated at: Tue, 13 Nov 2018 06:32:45 GMT